Fosston, MN

10:47 PM CST on January 22, 2018 (GMT -0600)
Fosston Municipal

Weather History for KFSE - October, 2014

Change the Weather History Date:

Friday, October 17, 2014

  Actual Average Record
Temperature  
Mean Temperature 45 °F -  
Max Temperature 48 °F 52 °F 79 °F (1956)
Min Temperature 42 °F 31 °F 13 °F (1972)
Degree Days  
Heating Degree Days 20    
Moisture  
Dew Point 39 °F    
Average Humidity 82    
Maximum Humidity 93    
Minimum Humidity 71    
Precipitation  
Precipitation 0.00 in - - ()
Sea Level Pressure  
Sea Level Pressure 29.93 in    
Wind  
Wind Speed 16 mph (NNW)    
Max Wind Speed 23 mph    
Max Gust Speed 29 mph    
Visibility 10 miles    
Events Rain    
Averages and records for this station are not official NWS values.
T = Trace of Precipitation, MM = Missing Value Source: NWS Daily Summary

Daily Weather History Graph

Daily Weather History Graph

Search for Another Location

Airport or City:

Trip Planner

Search our weather history database for the weather conditions in past years. The results will help you decide how hot, cold, wet, or windy it might be!

Date:

Astronomy

Oct. 17, 2014 Rise Set
Actual Time 7:44 AM CDT 6:31 PM CDT
Civil Twilight 7:13 AM CDT 7:02 PM CDT
Nautical Twilight 6:37 AM CDT 7:37 PM CDT
Astronomical Twilight 6:02 AM CDT 8:13 PM CDT
Moon 1:26 AM CDT (10/17) 3:40 PM CDT (10/17)
Length of Visible Light 11h 48m
Length of Day
10h 46m
Waning Crescent, 32% of the Moon is Illuminated
Oct 17
Waning Crescent
Oct 23
New
Oct 30
First Quarter
Nov 6
Full
Nov 14
Last Quarter

Hourly Weather History & Observations

Time (CDT) Temp. Windchill Dew Point Humidity Pressure Visibility Wind Dir Wind Speed Gust Speed Precip Events Conditions
12:15 AM 44.6 °F 36.6 °F 42.8 °F 93% 29.64 in 10.0 mi NW 19.6 mph 23.0 mph N/A Rain Light Rain
12:35 AM 44.6 °F 37.8 °F 42.8 °F 93% 29.64 in 10.0 mi NW 15.0 mph 26.5 mph N/A   Light Drizzle
12:55 AM 44.6 °F 37.8 °F 42.8 °F 93% 29.65 in 10.0 mi NW 15.0 mph 24.2 mph N/A   Light Drizzle
1:15 AM 44.6 °F 37.2 °F 42.8 °F 93% 29.66 in 10.0 mi NW 17.3 mph 26.5 mph N/A   Overcast
1:35 AM 44.6 °F 36.9 °F 42.8 °F 93% 29.66 in 10.0 mi NW 18.4 mph 23.0 mph N/A   Overcast
1:55 AM 44.6 °F 37.4 °F 42.8 °F 93% 29.67 in 10.0 mi WNW 16.1 mph 20.7 mph N/A   Overcast
2:15 AM 44.6 °F 38.1 °F 42.8 °F 93% 29.67 in 10.0 mi WNW 13.8 mph 24.2 mph N/A   Overcast
2:35 AM 44.6 °F 37.4 °F 42.8 °F 93% 29.68 in 10.0 mi NW 16.1 mph 21.9 mph N/A   Overcast
2:55 AM 44.6 °F 37.8 °F 41.0 °F 87% 29.68 in 10.0 mi NW 15.0 mph 20.7 mph N/A   Overcast
3:15 AM 44.6 °F 37.8 °F 41.0 °F 87% 29.69 in 10.0 mi NW 15.0 mph 21.9 mph N/A   Overcast
3:35 AM 44.6 °F 37.8 °F 41.0 °F 87% 29.69 in 10.0 mi NW 15.0 mph - N/A   Overcast
3:55 AM 44.6 °F 39.2 °F 41.0 °F 87% 29.70 in 10.0 mi WNW 10.4 mph 18.4 mph N/A   Overcast
4:15 AM 44.6 °F 37.8 °F 42.8 °F 93% 29.71 in 10.0 mi NW 15.0 mph 18.4 mph N/A   Overcast
4:35 AM 44.6 °F 37.8 °F 41.0 °F 87% 29.72 in 10.0 mi NW 15.0 mph 20.7 mph N/A   Overcast
4:55 AM 44.6 °F 38.4 °F 42.8 °F 93% 29.73 in 10.0 mi NW 12.7 mph - N/A   Overcast
5:15 AM 44.6 °F 37.4 °F 42.8 °F 93% 29.74 in 10.0 mi NW 16.1 mph 21.9 mph N/A   Overcast
5:35 AM 44.6 °F 37.8 °F 42.8 °F 93% 29.75 in 10.0 mi NW 15.0 mph 25.3 mph N/A   Overcast
5:55 AM 44.6 °F 36.9 °F 42.8 °F 93% 29.77 in 10.0 mi NNW 18.4 mph 26.5 mph N/A   Overcast
6:15 AM 44.6 °F 36.6 °F 41.0 °F 87% 29.78 in 10.0 mi NNW 19.6 mph 26.5 mph N/A   Overcast
6:35 AM 44.6 °F 36.6 °F 41.0 °F 87% 29.79 in 10.0 mi NW 19.6 mph 24.2 mph N/A   Overcast
6:55 AM 44.6 °F 36.4 °F 39.2 °F 81% 29.81 in 10.0 mi NNW 20.7 mph 26.5 mph N/A   Overcast
7:15 AM 44.6 °F 35.9 °F 39.2 °F 81% 29.82 in 10.0 mi NNW 23.0 mph 28.8 mph N/A   Overcast
7:35 AM 44.6 °F 36.6 °F 39.2 °F 81% 29.83 in 10.0 mi NNW 19.6 mph 27.6 mph N/A   Overcast
7:55 AM 44.6 °F 35.9 °F 39.2 °F 81% 29.85 in 10.0 mi NNW 23.0 mph 27.6 mph N/A   Overcast
8:15 AM 44.6 °F 35.9 °F 39.2 °F 81% 29.86 in 10.0 mi NNW 23.0 mph 26.5 mph N/A   Overcast
8:35 AM 44.6 °F 36.6 °F 39.2 °F 81% 29.87 in 10.0 mi NNW 19.6 mph 25.3 mph N/A   Overcast
8:55 AM 42.8 °F 34.3 °F 39.2 °F 87% 29.89 in 10.0 mi NNW 19.6 mph 25.3 mph N/A   Overcast
9:15 AM 44.6 °F 36.9 °F 39.2 °F 81% 29.90 in 10.0 mi NNW 18.4 mph - N/A   Overcast
9:35 AM 44.6 °F 37.4 °F 39.2 °F 81% 29.91 in 10.0 mi NNW 16.1 mph 23.0 mph N/A   Overcast
9:55 AM 44.6 °F 36.4 °F 39.2 °F 81% 29.92 in 10.0 mi NNW 20.7 mph 26.5 mph N/A   Overcast
10:15 AM 44.6 °F 36.4 °F 39.2 °F 81% 29.92 in 10.0 mi NNW 20.7 mph 26.5 mph N/A   Overcast
10:35 AM 44.6 °F 37.2 °F 39.2 °F 81% 29.94 in 10.0 mi NNW 17.3 mph - N/A   Overcast
10:55 AM 44.6 °F 36.6 °F 39.2 °F 81% 29.95 in 10.0 mi NNW 19.6 mph 23.0 mph N/A   Overcast
11:15 AM 44.6 °F 36.6 °F 39.2 °F 81% 29.96 in 10.0 mi NNW 19.6 mph 25.3 mph N/A   Overcast
11:35 AM 44.6 °F 36.6 °F 37.4 °F 76% 29.97 in 10.0 mi NNW 19.6 mph 25.3 mph N/A   Overcast
11:55 AM 44.6 °F 36.9 °F 37.4 °F 76% 29.98 in 10.0 mi NNW 18.4 mph 25.3 mph N/A   Overcast
12:15 PM 44.6 °F 36.9 °F 37.4 °F 76% 29.98 in 10.0 mi NNW 18.4 mph 23.0 mph N/A   Overcast
12:35 PM 44.6 °F 36.6 °F 37.4 °F 76% 30.00 in 10.0 mi NNW 19.6 mph 23.0 mph N/A   Overcast
12:55 PM 44.6 °F 36.6 °F 37.4 °F 76% 30.00 in 10.0 mi NNW 19.6 mph - N/A   Overcast
1:15 PM 44.6 °F 36.6 °F 37.4 °F 76% 30.00 in 10.0 mi NNW 19.6 mph - N/A   Overcast
1:35 PM 44.6 °F 37.8 °F 37.4 °F 76% 30.01 in 10.0 mi NNW 15.0 mph - N/A   Overcast
1:55 PM 46.4 °F 40.1 °F 37.4 °F 71% 30.01 in 10.0 mi NNW 15.0 mph - N/A   Overcast
2:15 PM 46.4 °F 40.1 °F 39.2 °F 76% 30.01 in 10.0 mi NNW 15.0 mph - N/A   Overcast
2:35 PM 46.4 °F 40.4 °F 39.2 °F 76% 30.02 in 10.0 mi NNW 13.8 mph - N/A   Overcast
2:55 PM 46.4 °F 40.4 °F 39.2 °F 76% 30.03 in 10.0 mi NNW 13.8 mph - N/A   Overcast
3:15 PM 46.4 °F 40.1 °F 39.2 °F 76% 30.03 in 10.0 mi North 15.0 mph - N/A   Overcast
3:35 PM 48.2 °F - 39.2 °F 71% 30.04 in 10.0 mi NNW 15.0 mph - N/A   Overcast
3:55 PM 46.4 °F 39.8 °F 39.2 °F 76% 30.04 in 10.0 mi NNW 16.1 mph - N/A   Overcast
4:15 PM 46.4 °F 40.1 °F 39.2 °F 76% 30.05 in 10.0 mi NW 15.0 mph - N/A   Overcast
4:35 PM 46.4 °F 40.7 °F 39.2 °F 76% 30.05 in 10.0 mi NNW 12.7 mph - N/A   Overcast
4:55 PM 46.4 °F 40.4 °F 39.2 °F 76% 30.06 in 10.0 mi NNW 13.8 mph - N/A   Overcast
5:15 PM 46.4 °F 41.1 °F 39.2 °F 76% 30.07 in 10.0 mi NNW 11.5 mph - N/A   Overcast
5:35 PM 46.4 °F 40.4 °F 39.2 °F 76% 30.08 in 10.0 mi NNW 13.8 mph 19.6 mph N/A   Overcast
5:55 PM 44.6 °F 38.8 °F 39.2 °F 81% 30.09 in 10.0 mi NW 11.5 mph - N/A   Overcast
6:15 PM 44.6 °F 38.8 °F 39.2 °F 81% 30.09 in 10.0 mi NW 11.5 mph - N/A   Overcast
6:35 PM 44.6 °F 38.8 °F 39.2 °F 81% 30.10 in 10.0 mi NNW 11.5 mph - N/A   Overcast
6:55 PM 44.6 °F 39.7 °F 39.2 °F 81% 30.11 in 10.0 mi NW 9.2 mph - N/A   Overcast
7:15 PM 44.6 °F 39.7 °F 39.2 °F 81% 30.11 in 10.0 mi NW 9.2 mph - N/A   Overcast
7:35 PM 44.6 °F 39.2 °F 39.2 °F 81% 30.12 in 10.0 mi NNW 10.4 mph - N/A   Overcast
7:55 PM 44.6 °F 38.4 °F 37.4 °F 76% 30.12 in 10.0 mi NNW 12.7 mph 16.1 mph N/A   Overcast
8:15 PM 44.6 °F 38.4 °F 37.4 °F 76% 30.13 in 10.0 mi NNW 12.7 mph 17.3 mph N/A   Overcast
8:35 PM 44.6 °F 39.2 °F 37.4 °F 76% 30.13 in 10.0 mi NNW 10.4 mph - N/A   Overcast
8:55 PM 44.6 °F 38.4 °F 37.4 °F 76% 30.14 in 10.0 mi NNW 12.7 mph - N/A   Overcast
9:15 PM 44.6 °F 38.1 °F 37.4 °F 76% 30.15 in 10.0 mi NNW 13.8 mph - N/A   Overcast
9:36 PM 44.6 °F 38.8 °F 37.4 °F 76% 30.16 in 10.0 mi North 11.5 mph - N/A   Overcast
9:55 PM 44.6 °F 38.8 °F 37.4 °F 76% 30.16 in 10.0 mi NNW 11.5 mph - N/A   Overcast
10:15 PM 42.8 °F 36.6 °F 37.4 °F 81% 30.16 in 10.0 mi NNW 11.5 mph - N/A   Overcast
10:36 PM 42.8 °F 36.6 °F 37.4 °F 81% 30.16 in 10.0 mi NNW 11.5 mph - N/A   Overcast
10:55 PM 42.8 °F 37.5 °F 37.4 °F 81% 30.17 in 10.0 mi North 9.2 mph - N/A   Overcast
11:15 PM 42.8 °F 38.6 °F 37.4 °F 81% 30.17 in 10.0 mi NNE 6.9 mph - N/A   Overcast
11:36 PM 42.8 °F 37.0 °F 35.6 °F 76% 30.18 in 10.0 mi North 10.4 mph - N/A   Overcast
11:55 PM 42.8 °F 38.0 °F 35.6 °F 76% 30.18 in 10.0 mi North 8.1 mph - N/A   Overcast